Hourly Data Report for May 10, 2016

LA RONGE RCS
SASKATCHEWAN

55°08'47.020" N
105°16'13.030" W
378.60 m
4064149
71586
XOX

Download Data

Hourly Data (May 2016)
Hourly Data Report for May 10, 2016
TIME
LST
Temp Definition
°C
Dew Point Definition
°C
Rel Hum Definition
%
Precip. Amount Definition
mm

Wind Dir Definition
10's deg

Wind Spd Definition
km/h
Visibility Definition
km
Stn Press Definition
kPa
Hmdx Definition


Wind Chill Definition


Weather Definition


00:00 8.6 0.2 55 0.0 34 17   97.13     LegendNANA
01:00 7.8 -0.1 57 0.0 35 15   97.21     LegendNANA
02:00 6.9 -0.5 59 0.0 34 19   97.26     LegendNANA
03:00 6.3 -0.4 62 0.0 34 15   97.33     LegendNANA
04:00 5.7 -0.4 65 0.0 35 16   97.39     LegendNANA
05:00 5.2 -0.3 68 0.0 33 16   97.45     LegendNANA
06:00 5.0 -0.3 69 0.0 35 14   97.51     LegendNANA
07:00 5.0 -0.2 69 0.0 34 17   97.52     LegendNANA
08:00 5.3 -0.4 67 0.0 34 18   97.54     LegendNANA
09:00 5.8 -0.1 66 0.0 34 16   97.58     LegendNANA
10:00 6.5 -0.1 63 0.0 33 12   97.60     LegendNANA
11:00 6.8 -0.5 60 0.0 33 16   97.59     LegendNANA
12:00 7.6 -0.9 55 0.0 36 17   97.59     LegendNANA
13:00 9.3 -1.5 47 0.0 1 16   97.56     LegendNANA
14:00 10.0 -1.6 44 0.0 36 15   97.54     LegendNANA
15:00 10.7 -1.9 41 0.0 4 9   97.55     LegendNANA
16:00 11.9 -2.2 37 0.0 1 16   97.54     LegendNANA
17:00 11.7 -2.6 37 0.0 36 18   97.54     LegendNANA
18:00 10.8 -2.1 40 0.0 6 18   97.55     LegendNANA
19:00 10.7 -2.0 41 0.0 5 13   97.57     LegendNANA
20:00 10.0 -1.5 45 0.0 4 9   97.60     LegendNANA
21:00 8.8 -0.5 52 0.0 3 5   97.63     LegendNANA
22:00 7.6 0.1 59 0.0 5 9   97.65     LegendNANA
23:00 7.1 0.5 63 0.0 6 6   97.69     LegendNANA

Notes on Data Quality.

Legend

  • E = Estimated
  • M = Missing
  • NA = Not Available*
  • [empty] = Indicates an unobserved value
Date modified: